Location: Unspecified
(37.4502°S, 0.0000°E)
Time: 10:23:58
(UTC+00:00)

Vanguard 1 - Visible Passes

Search period start: 04 April 2026 00:00
Search period end: 14 April 2026 00:00
Orbit: 654 x 3817 km, 34.2° (Epoch: 28 March)

Date Brightness Start Highest point End Pass type
(mag) Time Alt. Az. Time Alt. Az. Time Alt. Az.
4 Apr 12.4 18:17:04 10° W 18:29:20 75° N 18:50:14 11° ENE visible
4 Apr 12.9 20:38:27 10° W 20:54:16 51° NNW 21:02:49 38° NNE visible
4 Apr 13.7 23:04:25 10° W 23:15:23 22° NW 23:15:23 22° NW visible
5 Apr 12.4 18:36:25 10° W 18:49:00 70° NNW 19:08:34 14° ENE visible
5 Apr 13.1 20:58:13 10° W 21:13:49 44° NNW 21:21:09 36° N visible
5 Apr 13.9 23:26:47 10° WNW 23:33:44 16° WNW 23:33:44 16° WNW visible
6 Apr 12.5 18:55:48 10° W 19:08:39 64° NNW 19:27:00 16° NE visible
6 Apr 13.3 21:18:11 10° W 21:33:18 36° NW 21:39:36 32° N visible
7 Apr 12.7 19:15:15 10° W 19:28:17 57° NNW 19:45:36 17° NE visible
7 Apr 13.5 21:38:33 10° W 21:52:46 29° NW 21:58:13 26° NNW visible
8 Apr 12.9 19:34:47 10° W 19:47:53 49° NNW 20:04:21 18° NE visible
8 Apr 13.7 21:59:32 10° W 22:12:13 22° NW 22:16:59 21° NNW visible
9 Apr 13.1 19:54:28 10° W 20:07:27 41° NNW 20:23:18 17° NNE visible
9 Apr 13.9 22:21:46 10° WNW 22:31:42 16° NW 22:35:57 15° NNW visible
10 Apr 12.4 17:52:50 10° W 18:03:11 61° NNW 18:21:53 10° NE visible
10 Apr 13.3 20:14:23 10° W 20:27:01 34° NNW 20:42:28 14° NNE visible
10 Apr 14.1 22:49:37 10° NW 22:51:14 10° NW 22:52:52 10° NW visible
11 Apr 12.5 18:12:14 10° W 18:22:45 53° NNW 18:41:12 10° NE visible
11 Apr 13.5 20:34:41 10° W 20:46:35 27° NW 21:01:55 11° N visible
12 Apr 12.8 18:31:43 10° W 18:42:18 45° NNW 19:00:12 10° NE visible
12 Apr 13.8 20:55:39 10° WNW 21:06:09 20° NW 21:19:37 10° N visible
13 Apr 13.0 18:51:21 10° W 19:01:52 38° NNW 19:18:49 10° NNE visible
13 Apr 14.0 21:18:05 10° WNW 21:25:46 14° NW 21:34:48 10° NNW visible
